Date String (YYYY-MM-DD hh:mm:ss) UTC,Instrument flags,absolute air pressure of the measurement (hPa),sample flow rate (lpm),inlet stack bypass flow (lpm),air temperature of the measurement (°C),ambient temperature measured by the external sensor (°C),aerosol sample conditioner tube jacket temperature (°C),OPC LED temperature (°C),internal box temperature (°C),relative humidity of the measurement (%),span deviation,mass concentration of particles derived from Lorenz-Mie calculation of OPC scattering (μg/m³),mass concentration of particles derived from Lorenz-Mie calculation of OPC scattering (μg/m³),mass concentration of particles derived from Lorenz-Mie calculation of OPC scattering (μg/m³)
DateTimeUTC,F1_M11,P_M11,Q1_M11,Q2_M11,T1_M11,T2_M11,T3_M11,T4_M11,T5_M11,U1_M11,ZSPAN_M11,X0_M11,X2_M11,X1_M11
2023-10-23 09:00:00,SystemResetWarning,0823.8,5.00,000.00,029.0,027.5,000.0,037.4,030.7,12.9,0000.0,0011.19,0004.95,0003.94
2023-10-23 09:01:00,SystemResetWarning,0823.8,5.00,000.00,029.0,027.5,000.0,037.4,030.7,12.9,0000.0,0011.46,0004.96,0003.93
2023-10-23 09:02:00,SystemResetWarning,0823.8,4.97,000.00,029.0,027.6,000.0,037.4,030.6,12.8,0000.0,0011.68,0004.93,0003.93
2023-10-23 09:03:00,SystemResetWarning,0823.8,5.01,000.00,029.0,027.6,000.0,037.4,030.7,12.8,0000.0,0012.29,0004.92,0003.93
2023-10-23 09:04:00,SystemResetWarning,0823.8,5.01,000.00,029.0,027.6,000.0,037.4,030.7,12.8,0000.0,0012.53,0004.91,0003.93
2023-10-23 09:05:00,SystemResetWarning,0823.8,5.00,000.00,029.0,027.6,000.0,037.4,030.7,12.8,0000.0,0012.78,0004.90,0003.93
2023-10-23 09:06:00,SystemResetWarning,0823.8,4.98,000.00,029.0,027.6,000.0,037.4,030.7,12.8,0000.0,0012.90,0004.86,0003.93
2023-10-23 09:07:00,SystemResetWarning,0823.8,5.01,000.00,029.0,027.6,000.0,037.4,030.7,12.9,0000.0,0012.61,0004.84,0003.93
2023-10-23 09:08:00,SystemResetWarning,0823.8,5.01,000.00,029.0,027.6,000.0,037.5,030.7,12.9,0000.0,0012.52,0004.81,0003.92
2023-10-23 09:09:00,SystemResetWarning,0823.8,5.00,000.00,029.0,027.6,000.0,037.5,030.7,12.9,0000.0,0012.62,0004.80,0003.92
2023-10-23 09:10:00,SystemResetWarning,0823.8,5.01,000.00,029.0,027.6,000.0,037.4,030.7,12.9,0000.0,0012.42,0004.81,0003.91
2023-10-23 09:11:00,SystemResetWarning,0823.8,5.00,000.00,029.0,027.6,000.0,037.4,030.7,13.0,0000.0,0012.44,0004.83,0003.92
2023-10-23 09:12:00,SystemResetWarning,0823.8,4.98,000.00,029.0,027.6,000.0,037.4,030.7,13.0,0000.0,0012.41,0004.80,0003.91
2023-10-23 09:13:00,SystemResetWarning,0823.8,5.01,000.00,029.0,027.6,000.0,037.5,030.7,13.0,0000.0,0012.42,0004.85,0003.91
2023-10-23 09:14:00,SystemResetWarning,0823.7,5.02,000.00,029.0,027.6,000.0,037.4,030.7,13.1,0000.0,0012.08,0004.84,0003.90
2023-10-23 09:15:00,SystemResetWarning,0823.7,5.00,000.00,029.1,027.6,000.0,037.5,030.7,13.2,0000.0,0011.95,0004.87,0003.90
2023-10-23 09:16:00,SystemResetWarning,0823.7,4.99,000.00,029.1,027.6,000.0,037.5,030.7,13.1,0000.0,0011.96,0004.93,0003.91
2023-10-23 09:17:00,SystemResetWarning,0823.8,4.99,000.00,029.1,027.6,000.0,037.5,030.7,13.1,0000.0,0011.87,0004.94,0003.91
2023-10-23 09:18:00,SystemResetWarning,0823.8,5.01,000.00,029.0,027.6,000.0,037.5,030.7,13.2,0000.0,0012.00,0004.88,0003.91
2023-10-23 09:19:00,SystemResetWarning,0823.8,5.01,000.00,029.1,027.6,000.0,037.5,030.7,13.1,0000.0,0012.04,0004.85,0003.90
2023-10-23 09:20:00,SystemResetWarning,0823.8,5.01,000.00,029.1,027.6,000.0,037.5,030.7,12.8,0000.0,0011.85,0004.85,0003.89
2023-10-23 09:21:00,SystemResetWarning,0823.8,4.99,000.00,029.1,027.6,000.0,037.5,030.7,12.6,0000.0,0011.76,0004.85,0003.89
2023-10-23 09:22:00,SystemResetWarning,0823.8,4.99,000.00,029.1,027.6,000.0,037.5,030.7,12.4,0000.0,0012.38,0004.86,0003.88
2023-10-23 09:23:00,SystemResetWarning,0823.7,5.00,000.00,029.1,027.6,000.0,037.5,030.8,12.2,0000.0,0012.48,0004.88,0003.87
2023-10-23 09:24:00,SystemResetWarning,0823.8,5.00,000.00,029.1,027.6,000.0,037.5,030.7,12.1,0000.0,0013.25,0004.87,0003.86
2023-10-23 09:25:00,SystemResetWarning,0823.8,5.00,000.00,029.1,027.6,000.0,037.5,030.7,12.1,0000.0,0013.52,0004.91,0003.85
2023-10-23 09:26:00,SystemResetWarning,0823.8,5.00,000.00,029.1,027.6,000.0,037.5,030.8,12.1,0000.0,0014.27,0004.95,0003.83
2023-10-23 09:27:00,SystemResetWarning,0823.8,5.00,000.00,029.1,027.6,000.0,037.5,030.7,12.0,0000.0,0014.09,0004.90,0003.82
2023-10-23 09:28:00,SystemResetWarning,0823.7,5.00,000.00,029.1,027.6,000.0,037.5,030.7,12.0,0000.0,0013.81,0004.91,0003.81
2023-10-23 09:29:00,SystemResetWarning,0823.7,4.97,000.00,029.1,027.6,000.0,037.5,030.7,12.1,0000.0,0013.58,0004.91,0003.81
2023-10-23 09:30:00,SystemResetWarning,0823.7,5.00,000.00,029.1,027.6,000.0,037.5,030.7,12.1,0000.0,0013.76,0004.92,0003.81
2023-10-23 09:31:00,SystemResetWarning,0823.6,5.00,000.00,029.1,027.6,000.0,037.5,030.7,12.1,0000.0,0014.00,0004.93,0003.81
2023-10-23 09:32:00,SystemResetWarning,0823.6,5.00,000.00,029.1,027.6,000.0,037.5,030.7,12.1,0000.0,0013.79,0004.89,0003.80
2023-10-23 09:33:00,SystemResetWarning,0823.6,5.00,000.00,029.1,027.6,000.0,037.5,030.7,12.2,0000.0,0013.39,0004.90,0003.81
2023-10-23 09:34:00,SystemResetWarning,0823.6,5.01,000.00,029.1,027.6,000.0,037.5,030.8,12.2,0000.0,0013.51,0004.87,0003.81
2023-10-23 09:35:00,SystemResetWarning,0823.6,5.01,000.00,029.1,027.6,000.0,037.5,030.8,12.3,0000.0,0013.60,0004.86,0003.81
2023-10-23 09:36:00,SystemResetWarning,0823.6,5.00,000.00,029.1,027.6,000.0,037.5,030.8,12.3,0000.0,0013.47,0004.77,0003.79
2023-10-23 09:37:00,SystemResetWarning,0823.6,5.00,000.00,029.1,027.6,000.0,037.5,030.8,12.3,0000.0,0013.59,0004.70,0003.79
2023-10-23 09:38:00,SystemResetWarning,0823.6,4.99,000.00,029.1,027.7,000.0,037.5,030.8,12.3,0000.0,0013.89,0004.70,0003.79
2023-10-23 09:39:00,SystemResetWarning,0823.6,4.99,000.00,029.1,027.7,000.0,037.5,030.8,12.4,0000.0,0014.20,0004.68,0003.78
2023-10-23 09:40:00,SystemResetWarning,0823.6,5.00,000.00,029.1,027.7,000.0,037.5,030.8,12.4,0000.0,0014.73,0004.72,0003.78
2023-10-23 09:41:00,SystemResetWarning,0823.6,5.01,000.00,029.1,027.7,000.0,037.5,030.8,12.4,0000.0,0014.58,0004.75,0003.79
2023-10-23 09:42:00,SystemResetWarning,0823.6,5.01,000.00,029.1,027.7,000.0,037.5,030.8,12.4,0000.0,0014.49,0004.74,0003.79
2023-10-23 09:43:00,SystemResetWarning,0823.6,5.00,000.00,029.1,027.7,000.0,037.6,030.8,12.4,0000.0,0014.35,0004.77,0003.79
2023-10-23 09:44:00,SystemResetWarning,0823.6,4.99,000.00,029.1,027.7,000.0,037.5,030.8,12.4,0000.0,0014.43,0004.77,0003.79
2023-10-23 09:45:00,SystemResetWarning,0823.5,5.00,000.00,029.2,027.7,000.0,037.6,030.8,12.4,0000.0,0014.56,0004.79,0003.80
2023-10-23 09:46:00,SystemResetWarning,0823.5,5.00,000.00,029.1,027.7,000.0,037.6,030.8,12.4,0000.0,0013.65,0004.79,0003.82
2023-10-23 09:47:00,SystemResetWarning,0823.5,5.00,000.00,029.2,027.7,000.0,037.6,030.8,12.4,0000.0,0013.84,0004.85,0003.83
2023-10-23 09:48:00,SystemResetWarning,0823.5,5.01,000.00,029.2,027.7,000.0,037.6,030.8,12.7,0000.0,0013.48,0004.87,0003.84
2023-10-23 09:49:00,SystemResetWarning,0823.5,5.00,000.00,029.2,027.7,000.0,037.6,030.8,12.8,0000.0,0012.94,0004.85,0003.85
2023-10-23 09:50:00,SystemResetWarning,0823.5,5.00,000.00,029.2,027.7,000.0,037.6,030.8,12.8,0000.0,0012.78,0004.83,0003.86
2023-10-23 09:51:00,SystemResetWarning,0823.5,4.98,000.00,029.2,027.7,000.0,037.6,030.8,12.9,0000.0,0012.36,0004.82,0003.87
2023-10-23 09:52:00,SystemResetWarning,0823.5,5.00,000.00,029.2,027.7,000.0,037.6,030.8,13.3,0000.0,0012.48,0004.81,0003.87
2023-10-23 09:53:00,SystemResetWarning,0823.4,5.01,000.00,029.2,027.7,000.0,037.6,030.8,13.3,0000.0,0012.26,0004.80,0003.87
2023-10-23 09:54:00,SystemResetWarning,0823.4,5.01,000.00,029.2,027.7,000.0,037.6,030.8,13.2,0000.0,0012.25,0004.84,0003.88
2023-10-23 09:55:00,SystemResetWarning,0823.4,5.00,000.00,029.2,027.7,000.0,037.6,030.8,13.5,0000.0,0011.75,0004.83,0003.89
2023-10-23 09:56:00,SystemResetWarning,0823.4,5.00,000.00,029.2,027.7,000.0,037.6,030.8,13.6,0000.0,0011.27,0004.79,0003.89
2023-10-23 09:57:00,SystemResetWarning,0823.4,5.00,000.00,029.2,027.7,000.0,037.6,030.8,13.6,0000.0,0013.15,0004.79,0003.89
2023-10-23 09:58:00,SystemResetWarning,0823.5,5.00,000.00,029.2,027.7,000.0,037.6,030.8,13.6,0000.0,0013.24,0004.75,0003.88
2023-10-23 09:59:00,SystemResetWarning,0823.4,5.00,000.00,029.2,027.7,000.0,037.6,030.8,13.6,0000.0,0013.44,0004.73,0003.88
